User: anonymous   Login
Location: Unspecified
(0.0000°N, 0.0000°E)
Time: 03:01:34
(UTC+00:00)
Language:

USA 229 DEB - Orbit

View from above orbital plane
View from above orbital plane
View from above satellite
View from above satellite

Ground track
Ground track

The orbit data is extracted from the following two-line orbital elements,

1 37391U 11014B   18097.84494536 0.00000000  00000-0  00000-0 0    01
2 37391  63.4426 346.4596 0094000   1.8399 358.1601 13.40751648    03
Epoch (UTC): 07 April 2018 20:16:43
Eccentricity: 0.0094000
inclination: 63.4426°
perigee height: 1036 km
apogee height: 1177 km
right ascension of ascending node: 346.4596°
argument of perigee: 1.8399°
revolutions per day: 13.40751648
mean anomaly at epoch: 358.1601°
orbit number at epoch: 0

The dashed part of the orbit path shows where the satellite is in the earth's shadow,  

DLR